This is the latest recevied weather packets stored in our database for station/object EB1BCG-1. If no packets are shown the sender has not sent any weather packets the latest 10 day(s).
| Time | Temp. | Humidity | Pressure | Rain* | Wind** | Luminosity | Snow |
|---|---|---|---|---|---|---|---|
| 1777134205 | 13.89° C | 87% | 1017.3 hPa | 1.02 mm | 0 m/s | - | - |
| 1777133596 | 14.44° C | 86% | 1017.1 hPa | 1.02 mm | 0 m/s | - | - |
| 1777132989 | 15.56° C | 83% | 1016.9 hPa | 1.02 mm | 0 m/s | - | - |
| 1777132436 | 15.56° C | 79% | 1016.7 hPa | 0.51 mm | 0 m/s | - | - |
| 1777131830 | 15.56° C | 75% | 1016.5 hPa | 0.51 mm | 0 m/s | - | - |
| 1777131225 | 16.11° C | 72% | 1016.3 hPa | 0.51 mm | 0 m/s | - | - |
| 1777130685 | 17.22° C | 66% | 1016.3 hPa | 0 mm | 0 m/s | - | - |
| 1777128257 | 18.33° C | 64% | 1016.1 hPa | 0 mm | 0 m/s | - | - |
| 1777127650 | 18.89° C | 62% | 1016.1 hPa | 3.05 mm | 0 m/s | - | - |
| 1777127045 | 18.89° C | 60% | 1016.2 hPa | 3.05 mm | 0 m/s | - | - |
| 1777126436 | 18.89° C | 70% | 1016.2 hPa | 3.05 mm | 0 m/s | - | - |
| 1777125828 | 18.89° C | 71% | 1016.2 hPa | 3.05 mm | 0 m/s | - | - |
| 1777125225 | 17.78° C | 73% | 1016.4 hPa | 3.05 mm | 0 m/s | - | - |
| 1777124615 | 16.67° C | 68% | 1016.5 hPa | 3.05 mm | 0 m/s | - | - |
| 1777124075 | 17.78° C | 53% | 1016.7 hPa | 2.03 mm | 0 m/s | - | - |
| 1777123534 | 20° C | 49% | 1016.4 hPa | 0 mm | 0 m/s | - | - |
| 1777122928 | 20.56° C | 46% | 1016.3 hPa | 0 mm | 0 m/s | - | - |
| 1777122325 | 22.22° C | 44% | 1016.4 hPa | 0 mm | 0 m/s | - | - |
| 1777121717 | 23.33° C | 42% | 1016.3 hPa | 0 mm | 0 m/s | - | - |
| 1777121110 | 28.33° C | 43% | 1016.2 hPa | 0 mm | 0 m/s | - | - |
| 1777120506 | 26.67° C | 45% | 1016.4 hPa | 0 mm | 0 m/s | - | - |
| 1777119896 | 27.22° C | 48% | 1016.6 hPa | 0 mm | 0 m/s | - | - |
| 1777119289 | 25.56° C | 48% | 1016.6 hPa | 0 mm | 0 m/s | - | - |
| 1777118685 | 24.44° C | 53% | 1016.7 hPa | 0 mm | 0 m/s | - | - |
| 1777118074 | 23.89° C | 48% | 1016.9 hPa | 0 mm | 0 m/s | - | - |
* Rain latest hour (hover to see other rain measurements)
** Current wind speed in m/s (hover to see current wind gust speed)